DW1347 Weather Reports


Display with metric or nautical units.
time (UTC)temp
F
wind
direction
speed
MPH
gust
MPH
rain 1hr
in
rain 24hr
in
rain mn
in
humidity
%
barometer
mb
20260905073558 55 183 1.0 1.0 0.00 0.00 0.00 63 1029.9
20260905073054 55 193 1.0 1.0 0.00 0.00 0.00 64 1029.9
20260905072553 55 218 0.0 0.0 0.00 0.00 0.00 64 1029.7
20260905072048 55 211 0.0 0.0 0.00 0.00 0.00 64 1029.8
20260905071545 55 208 0.0 0.0 0.00 0.00 0.00 64 1029.8
20260905071040 55 199 0.0 0.0 0.00 0.00 0.00 64 1029.8
20260905070536 55 217 0.0 0.0 0.00 0.00 0.00 63 1029.8
20260905070031 55 205 0.0 0.0 0.00 0.00 0.00 63 1029.8
20260905065528 55 187 1.0 1.0 0.00 0.00 0.00 64 1029.9
20260905065025 55 196 0.0 0.0 0.00 0.00 0.00 64 1029.7
20260905064525 55 169 2.0 2.0 0.00 0.00 0.00 64 1029.9
20260905064020 55 208 0.0 0.0 0.00 0.00 0.00 64 1029.8
20260905063519 57 233 2.0 2.0 0.00 0.00 0.00 61 1029.8
20260905063016 56 177 2.0 2.0 0.00 0.00 0.00 61 1029.7
20260905062515 55 201 1.0 1.0 0.00 0.00 0.00 63 1029.9
20260905062010 55 212 0.0 0.0 0.00 0.00 0.00 63 1029.8
20260905061505 56 210 0.0 0.0 0.00 0.00 0.00 61 1029.8
20260905061004 56 216 0.0 0.0 0.00 0.00 0.00 61 1029.7
20260905060500 57 194 1.0 1.0 0.00 0.00 0.00 61 1029.7
20260905055954 57 199 0.0 0.0 0.00 0.00 0.00 61 1029.7
20260905055454 57 210 0.0 0.0 0.00 0.00 0.00 59 1029.3
20260905054949 57 212 0.0 0.0 0.00 0.00 0.00 60 1029.7
20260905054444 57 213 0.0 0.0 0.00 0.00 0.00 61 1029.9
20260905053945 57 211 0.0 0.0 0.00 0.00 0.00 61 1029.7
20260905053439 57 216 0.0 0.0 0.00 0.00 0.00 60 1029.5
20260905052935 58 218 0.0 0.0 0.00 0.00 0.00 60 1029.7
20260905052434 58 190 1.0 1.0 0.00 0.00 0.00 59 1029.5
20260905051934 58 210 0.0 0.0 0.00 0.00 0.00 59 1029.7
20260905051430 58 194 1.0 2.0 0.00 0.00 0.00 59 1029.5
20260905050927 58 229 0.0 0.0 0.00 0.00 0.00 60 1029.8
20260905050423 58 159 2.0 2.0 0.00 0.00 0.00 60 1029.7
20260905045919 59 246 0.0 0.0 0.00 0.00 0.00 60 1029.7
20260905045414 59 209 0.0 0.0 0.00 0.00 0.00 59 1029.4
20260905044909 59 195 1.0 1.0 0.00 0.00 0.00 59 1029.7
20260905044404 60 218 0.0 0.0 0.00 0.00 0.00 59 1029.8
20260905043903 60 204 0.0 0.0 0.00 0.00 0.00 58 1029.5
20260905043357 60 205 0.0 0.0 0.00 0.00 0.00 58 1029.8
20260905042852 60 203 0.0 1.0 0.00 0.00 0.00 58 1029.5
20260905042346 61 220 0.0 0.0 0.00 0.00 0.00 58 1029.5
20260905041841 61 197 1.0 1.0 0.00 0.00 0.00 57 1029.5
20260905041338 62 192 1.0 1.0 0.00 0.00 0.00 56 1029.7
20260905040838 62 183 1.0 1.0 0.00 0.00 0.00 56 1029.5
20260905040336 63 211 0.0 0.0 0.00 0.00 0.00 54 1029.8
20260905035836 64 201 0.0 0.0 0.00 0.00 0.00 54 1029.7
20260905035332 64 218 0.0 0.0 0.00 0.00 0.00 54 1029.7
20260905034828 64 177 1.0 2.0 0.00 0.00 0.00 53 1029.5
20260905034324 65 228 0.0 0.0 0.00 0.00 0.00 53 1029.4
20260905033822 65 188 0.0 0.0 0.00 0.00 0.00 52 1029.4
20260905033318 67 221 0.0 0.0 0.00 0.00 0.00 50 1029.7
20260905032817 68 223 0.0 0.0 0.00 0.00 0.00 49 1029.5
20260905032313 67 224 1.0 1.0 0.00 0.00 0.00 51 1029.5
20260905031807 67 221 1.0 1.0 0.00 0.00 0.00 50 1029.5
20260905031303 68 244 1.0 1.0 0.00 0.00 0.00 49 1029.3
20260905030758 68 236 0.0 0.0 0.00 0.00 0.00 48 1029.4
20260905030254 68 227 1.0 1.0 0.00 0.00 0.00 48 1029.3
20260905025748 69 222 1.0 1.0 0.00 0.00 0.00 48 1029.3
20260905025244 68 175 3.0 3.0 0.00 0.00 0.00 47 1029.1
20260905024739 67 227 1.0 2.0 0.00 0.00 0.00 48 1029.1
20260905024235 65 243 0.0 0.0 0.00 0.00 0.00 49 1029.4
20260905023735 65 200 1.0 1.0 0.00 0.00 0.00 49 1029.1
20260905023230 65 211 0.0 0.0 0.00 0.00 0.00 50 1028.9
20260905022729 65 207 0.0 1.0 0.00 0.00 0.00 50 1029.0
20260905022225 66 216 0.0 0.0 0.00 0.00 0.00 50 1029.0
20260905021725 66 214 0.0 0.0 0.00 0.00 0.00 50 1029.0
20260905021220 66 181 2.0 2.0 0.00 0.00 0.00 50 1028.6
20260905020715 66 190 1.0 1.0 0.00 0.00 0.00 50 1028.8
20260905020210 66 218 0.0 0.0 0.00 0.00 0.00 50 1028.8
20260905015709 66 214 0.0 0.0 0.00 0.00 0.00 49 1028.8
20260905015209 67 215 0.0 0.0 0.00 0.00 0.00 49 1028.8
20260905014707 68 237 0.0 1.0 0.00 0.00 0.00 47 1028.3
20260905014203 68 193 1.0 1.0 0.00 0.00 0.00 46 1028.5
20260905013659 69 218 0.0 0.0 0.00 0.00 0.00 46 1028.3
20260905013154 69 218 0.0 0.0 0.00 0.00 0.00 46 1028.6
20260905012650 69 219 0.0 0.0 0.00 0.00 0.00 44 1028.1
20260905012146 70 217 0.0 0.0 0.00 0.00 0.00 44 1028.3
20260905011642 71 226 1.0 1.0 0.00 0.00 0.00 44 1028.3
20260905011137 71 217 0.0 0.0 0.00 0.00 0.00 42 1028.5
20260905010632 73 217 0.0 0.0 0.00 0.00 0.00 40 1028.4
20260905010128 74 218 0.0 0.0 0.00 0.00 0.00 39 1028.5
20260905005624 75 217 1.0 1.0 0.00 0.00 0.00 38 1028.1
20260905005120 75 211 0.0 0.0 0.00 0.00 0.00 37 1028.4
20260905004619 75 197 1.0 1.0 0.00 0.00 0.00 37 1028.1
20260905004115 76 216 0.0 0.0 0.00 0.00 0.00 37 1028.3
20260905003610 76 21 2.0 2.0 0.00 0.00 0.00 36 1028.3
20260905003106 76 70 3.0 3.0 0.00 0.00 0.00 36 1028.4
20260905002601 77 85 1.0 2.0 0.00 0.00 0.00 35 1028.4
20260905002056 77 2 2.0 2.0 0.00 0.00 0.00 35 1028.3
20260905001551 77 46 3.0 3.0 0.00 0.00 0.00 35 1028.3
20260905001051 78 308 4.0 5.0 0.00 0.00 0.00 34 1028.0
20260905000546 78 15 6.0 7.0 0.00 0.00 0.00 34 1028.1
20260905000042 79 359 3.0 5.0 0.00 0.00 0.00 33 1028.5
20260904235536 79 219 2.0 2.0 0.00 0.00 0.00 33 1028.1
20260904235036 79 272 3.0 6.0 0.00 0.00 0.00 33 1028.3
20260904234536 78 32 4.0 6.0 0.00 0.00 0.00 34 1028.1
20260904234032 79 12 2.0 3.0 0.00 0.00 0.00 32 1028.0
20260904233527 80 176 2.0 2.0 0.00 0.00 0.00 31 1028.1
20260904233023 79 355 2.0 2.0 0.00 0.00 0.00 31 1028.1
20260904232520 80 222 3.0 3.0 0.00 0.00 0.00 31 1027.8
20260904232016 80 238 3.0 3.0 0.00 0.00 0.00 31 1028.0
20260904231512 78 241 0.0 1.0 0.00 0.00 0.00 31 1028.0
20260904231006 79 100 3.0 5.0 0.00 0.00 0.00 31 1028.0
20260904230500 79 7 7.0 9.0 0.00 0.00 0.00 31 1027.8
20260904225955 79 7 7.0 9.0 0.00 0.00 0.00 31 1027.8
20260904225453 78 357 3.0 5.0 0.00 0.00 0.00 31 1027.9
20260904224952 78 176 1.0 1.0 0.00 0.00 0.00 32 1027.9
20260904224448 79 241 3.0 5.0 0.00 0.00 0.00 31 1027.9
20260904223948 80 303 1.0 2.0 0.00 0.00 0.00 30 1027.9
20260904223447 80 3 6.0 8.0 0.00 0.00 0.00 30 1027.5
20260904222943 80 82 2.0 3.0 0.00 0.00 0.00 30 1027.8
20260904222439 80 146 2.0 2.0 0.00 0.00 0.00 30 1027.6
20260904221938 79 135 4.0 6.0 0.00 0.00 0.00 31 1027.8
20260904221432 79 301 2.0 2.0 0.00 0.00 0.00 31 1027.6
20260904220928 80 254 1.0 2.0 0.00 0.00 0.00 30 1027.6
20260904220428 79 7 1.0 2.0 0.00 0.00 0.00 31 1027.9
20260904215923 79 221 0.0 1.0 0.00 0.00 0.00 30 1027.8
20260904215418 79 70 2.0 3.0 0.00 0.00 0.00 30 1027.9
20260904214914 82 265 0.0 1.0 0.00 0.00 0.00 29 1028.1
20260904214410 82 133 5.0 7.0 0.00 0.00 0.00 29 1027.8
20260904213909 81 114 4.0 6.0 0.00 0.00 0.00 29 1027.9
20260904213403 81 126 6.0 7.0 0.00 0.00 0.00 28 1028.0
20260904212859 82 99 4.0 6.0 0.00 0.00 0.00 29 1028.0
20260904212358 81 214 3.0 3.0 0.00 0.00 0.00 29 1028.0
20260904211854 80 316 6.0 7.0 0.00 0.00 0.00 30 1028.0
20260904211349 78 181 0.0 1.0 0.00 0.00 0.00 31 1027.9
20260904210844 79 210 4.0 6.0 0.00 0.00 0.00 30 1028.1
20260904210344 80 195 5.0 6.0 0.00 0.00 0.00 29 1028.3
20260904205840 80 182 1.0 2.0 0.00 0.00 0.00 30 1028.1
20260904205335 80 211 3.0 5.0 0.00 0.00 0.00 29 1028.1
20260904204832 79 282 1.0 1.0 0.00 0.00 0.00 29 1028.1
20260904204327 78 251 3.0 3.0 0.00 0.00 0.00 31 1028.3
20260904203824 80 4 4.0 5.0 0.00 0.00 0.00 29 1028.4
20260904203320 80 117 2.0 3.0 0.00 0.00 0.00 29 1028.4
20260904202815 80 165 0.0 1.0 0.00 0.00 0.00 30 1028.3
20260904202311 81 11 6.0 10.0 0.00 0.00 0.00 29 1028.4
20260904201807 81 254 1.0 2.0 0.00 0.00 0.00 29 1028.8
20260904201306 82 340 7.0 9.0 0.00 0.00 0.00 29 1028.5
20260904200801 80 167 2.0 2.0 0.00 0.00 0.00 29 1028.8
20260904200256 79 254 3.0 5.0 0.00 0.00 0.00 29 1028.6
20260904195755 77 349 2.0 2.0 0.00 0.00 0.00 30 1028.9
20260904195254 78 3 7.0 11.0 0.00 0.00 0.00 30 1028.9
20260904194749 77 135 1.0 2.0 0.00 0.00 0.00 31 1029.1
20260904194248 78 125 3.0 5.0 0.00 0.00 0.00 30 1029.0
20260904193743 77 46 3.0 3.0 0.00 0.00 0.00 31 1028.9
20260904193239 77 230 0.0 1.0 0.00 0.00 0.00 31 1028.9
20260904192734 77 330 4.0 6.0 0.00 0.00 0.00 31 1028.6
20260904192229 78 332 3.0 6.0 0.00 0.00 0.00 31 1028.9
20260904191721 78 308 3.0 5.0 0.00 0.00 0.00 30 1028.8
20260904191216 78 148 1.0 2.0 0.00 0.00 0.00 31 1028.9
20260904190713 80 2 4.0 6.0 0.00 0.00 0.00 30 1028.8
20260904190208 80 220 4.0 6.0 0.00 0.00 0.00 29 1028.6
20260904185705 80 285 6.0 8.0 0.00 0.00 0.00 29 1028.9
20260904185159 78 29 3.0 6.0 0.00 0.00 0.00 30 1028.9
20260904184658 79 16 6.0 8.0 0.00 0.00 0.00 29 1028.8
20260904184154 79 266 4.0 6.0 0.00 0.00 0.00 29 1029.0
20260904183649 80 204 1.0 1.0 0.00 0.00 0.00 28 1029.1
20260904183149 78 211 1.0 1.0 0.00 0.00 0.00 29 1029.0
20260904182644 80 154 1.0 1.0 0.00 0.00 0.00 29 1029.3
20260904182139 80 83 3.0 3.0 0.00 0.00 0.00 29 1029.1
20260904181635 80 28 6.0 7.0 0.00 0.00 0.00 28 1029.5
20260904181130 80 222 2.0 3.0 0.00 0.00 0.00 29 1029.1
20260904180625 78 132 1.0 2.0 0.00 0.00 0.00 28 1029.3
20260904180120 77 312 5.0 7.0 0.00 0.00 0.00 29 1029.5
20260904175619 77 274 3.0 3.0 0.00 0.00 0.00 29 1029.3
20260904175118 78 67 5.0 6.0 0.00 0.00 0.00 29 1029.1
20260904174613 79 32 4.0 6.0 0.00 0.00 0.00 28 1029.4
20260904174109 78 63 1.0 2.0 0.00 0.00 0.00 30 1029.4
20260904173609 76 198 1.0 2.0 0.00 0.00 0.00 28 1029.3
20260904173105 78 339 3.0 7.0 0.00 0.00 0.00 29 1029.4
20260904172601 77 315 3.0 5.0 0.00 0.00 0.00 30 1029.5
20260904172100 77 359 2.0 2.0 0.00 0.00 0.00 30 1029.8
20260904171555 77 194 1.0 2.0 0.00 0.00 0.00 29 1029.5
20260904171051 76 199 1.0 2.0 0.00 0.00 0.00 29 1029.5
20260904170546 76 82 1.0 2.0 0.00 0.00 0.00 28 1029.5
20260904170042 77 204 0.0 0.0 0.00 0.00 0.00 28 1029.8
20260904165540 77 169 3.0 5.0 0.00 0.00 0.00 28 1029.7
20260904165040 76 170 3.0 5.0 0.00 0.00 0.00 29 1029.9
20260904151134 69 197 1.0 1.0 0.00 0.00 0.00 36 1029.4
20260904150630 69 197 1.0 1.0 0.00 0.00 0.00 36 1029.4
20260904150126 68 187 1.0 1.0 0.00 0.00 0.00 36 1029.3
20260904145624 67 191 0.0 0.0 0.00 0.00 0.00 39 1029.3
20260904145119 65 173 1.0 1.0 0.00 0.00 0.00 40 1029.3
20260904144615 63 209 0.0 0.0 0.00 0.00 0.00 43 1029.3
20260904144111 62 196 0.0 0.0 0.00 0.00 0.00 44 1029.3
20260904143607 61 207 0.0 0.0 0.00 0.00 0.00 50 1029.4
20260904143103 60 212 0.0 0.0 0.00 0.00 0.00 50 1029.7
20260904142600 59 217 0.0 0.0 0.00 0.00 0.00 52 1029.4
20260904142100 59 220 0.0 0.0 0.00 0.00 0.00 52 1029.1
20260904141555 59 192 1.0 1.0 0.00 0.00 0.00 48 1029.3
20260904141050 57 191 1.0 1.0 0.00 0.00 0.00 52 1029.3
20260904140546 56 207 0.0 0.0 0.00 0.00 0.00 53 1029.0
20260904140040 55 217 0.0 0.0 0.00 0.00 0.00 55 1029.4
20260904135539 55 209 0.0 0.0 0.00 0.00 0.00 53 1029.3
20260904135035 54 205 0.0 0.0 0.00 0.00 0.00 55 1029.0
20260904134531 53 208 0.0 0.0 0.00 0.00 0.00 57 1029.1
20260904134025 52 194 0.0 1.0 0.00 0.00 0.00 56 1029.1
20260904133520 50 168 1.0 1.0 0.00 0.00 0.00 59 1029.0
20260904133016 50 210 0.0 0.0 0.00 0.00 0.00 59 1029.1
20260904132516 49 184 1.0 1.0 0.00 0.00 0.00 59 1028.6
20260904132016 48 194 0.0 1.0 0.00 0.00 0.00 61 1028.8
20260904131516 48 235 0.0 0.0 0.00 0.00 0.00 62 1028.8
20260904131012 48 201 1.0 1.0 0.00 0.00 0.00 63 1028.8
20260904130511 48 195 1.0 1.0 0.00 0.00 0.00 60 1028.5
20260904130005 48 220 0.0 0.0 0.00 0.00 0.00 62 1028.5
20260904125502 48 227 0.0 0.0 0.00 0.00 0.00 61 1028.4
20260904124956 49 215 0.0 0.0 0.00 0.00 0.00 60 1028.3
20260904124452 48 199 1.0 1.0 0.00 0.00 0.00 61 1028.4
20260904123948 48 199 0.0 1.0 0.00 0.00 0.00 62 1028.4
20260904123442 48 187 1.0 1.0 0.00 0.00 0.00 62 1028.3
20260904122938 48 190 1.0 1.0 0.00 0.00 0.00 61 1028.3
20260904122437 48 206 0.0 1.0 0.00 0.00 0.00 61 1028.3
20260904121932 48 204 0.0 0.0 0.00 0.00 0.00 62 1028.1
20260904121428 48 211 0.0 0.0 0.00 0.00 0.00 62 1028.3
20260904120925 48 225 0.0 0.0 0.00 0.00 0.00 62 1028.1
20260904120420 48 197 0.0 0.0 0.00 0.00 0.00 63 1028.1
20260904115915 48 216 0.0 0.0 0.00 0.00 0.00 62 1028.1
20260904115410 48 216 0.0 0.0 0.00 0.00 0.00 63 1028.1
20260904114904 48 246 1.0 1.0 0.00 0.00 0.00 62 1027.9
20260904114359 48 215 0.0 0.0 0.00 0.00 0.00 63 1027.8
20260904113855 49 216 0.0 0.0 0.00 0.00 0.00 62 1028.0
20260904113354 49 197 1.0 1.0 0.00 0.00 0.00 61 1027.9
20260904112854 49 199 0.0 0.0 0.00 0.00 0.00 61 1028.0
20260904112350 49 215 0.0 0.0 0.00 0.00 0.00 60 1027.8
20260904111845 49 201 0.0 1.0 0.00 0.00 0.00 61 1027.9
20260904111341 49 204 0.0 0.0 0.00 0.00 0.00 62 1027.9
20260904110836 49 219 0.0 0.0 0.00 0.00 0.00 62 1027.6
20260904110335 49 219 0.0 0.0 0.00 0.00 0.00 61 1027.9
20260904105830 49 201 1.0 1.0 0.00 0.00 0.00 61 1027.8
20260904105325 50 219 0.0 0.0 0.00 0.00 0.00 59 1027.8
20260904104820 50 118 3.0 3.0 0.00 0.00 0.00 58 1027.5
20260904104316 49 156 0.0 1.0 0.00 0.00 0.00 60 1027.8
20260904103813 48 217 0.0 0.0 0.00 0.00 0.00 62 1027.6
20260904103312 49 205 0.0 0.0 0.00 0.00 0.00 61 1027.6
20260904102808 49 205 0.0 0.0 0.00 0.00 0.00 60 1027.5
20260904102306 49 216 0.0 0.0 0.00 0.00 0.00 61 1027.5
20260904101759 49 198 1.0 1.0 0.00 0.00 0.00 62 1027.1
20260904101255 49 201 1.0 1.0 0.00 0.00 0.00 61 1027.4
20260904100751 49 214 0.0 0.0 0.00 0.00 0.00 61 1027.5
20260904100247 50 219 0.0 0.0 0.00 0.00 0.00 60 1027.4
20260904095746 49 209 0.0 0.0 0.00 0.00 0.00 63 1027.3
20260904095241 49 169 1.0 1.0 0.00 0.00 0.00 62 1027.3
20260904094736 50 213 0.0 1.0 0.00 0.00 0.00 60 1027.1
20260904094231 51 202 1.0 1.0 0.00 0.00 0.00 57 1027.4
20260904093727 49 210 0.0 0.0 0.00 0.00 0.00 61 1027.1
20260904093227 50 219 0.0 0.0 0.00 0.00 0.00 62 1027.3
20260904092723 50 207 0.0 0.0 0.00 0.00 0.00 62 1027.3
20260904092219 50 191 1.0 1.0 0.00 0.00 0.00 61 1027.1
20260904091715 50 205 0.0 0.0 0.00 0.00 0.00 62 1027.1
20260904091209 50 220 0.0 0.0 0.00 0.00 0.00 63 1027.1
20260904090705 50 173 1.0 1.0 0.00 0.00 0.00 64 1027.4
20260904090201 50 224 0.0 0.0 0.00 0.00 0.00 64 1027.1
20260904085656 50 219 0.0 0.0 0.00 0.00 0.00 63 1026.9
20260904085156 50 208 0.0 0.0 0.00 0.00 0.00 62 1027.1
20260904084651 50 214 0.0 0.0 0.00 0.00 0.00 61 1027.0
20260904084147 50 165 2.0 2.0 0.00 0.00 0.00 62 1027.1
20260904083643 50 140 3.0 3.0 0.00 0.00 0.00 63 1027.0
20260904083138 51 221 0.0 0.0 0.00 0.00 0.00 63 1027.0